• In Hungary
  • List of Countries
  • For 7 days
  • Water Temperature
  • Satellite Maps
  • Weather Map
  • News
  • Weather Widgets
  • user-avatar
    Login

    Hourly Weather Belpasso

    Today, 23 June, Saturday

    Time Temperature Precipitation Wind Pressure Humidity
    00:00 +19°C° 0 mm 2 mps 710 mmHg 73%
    01:00 +19°C° 0 mm 2 mps 710 mmHg 73%
    02:00 +19°C° 0 mm 2 mps 710 mmHg 72%
    03:00 +19°C° 0 mm 2 mps 710 mmHg 71%
    04:00 +18°C° 0 mm 2 mps 710 mmHg 71%
    05:00 +20°C° 0 mm 2 mps 710 mmHg 66%
    06:00 +21°C° 0 mm 2 mps 710 mmHg 61%
    07:00 +23°C° 0 mm 1 mps 711 mmHg 56%
    08:00 +25°C° 0 mm 2 mps 711 mmHg 50%
    09:00 +26°C° 0 mm 2 mps 711 mmHg 45%
    10:00 +28°C° 0 mm 2 mps 711 mmHg 40%
    11:00 +28°C° 0 mm 2 mps 711 mmHg 39%
    12:00 +29°C° 0 mm 3 mps 711 mmHg 38%
    13:00 +29°C° 0 mm 4 mps 712 mmHg 38%
    14:00 +29°C° 0 mm 4 mps 711 mmHg 41%
    15:00 +28°C° 0 mm 4 mps 711 mmHg 44%
    16:00 +27°C° 0 mm 4 mps 711 mmHg 47%
    17:00 +26°C° 0 mm 3 mps 710 mmHg 52%
    18:00 +25°C° 0 mm 3 mps 710 mmHg 57%
    19:00 +24°C° 0 mm 3 mps 710 mmHg 62%
    20:00 +22°C° 0 mm 3 mps 710 mmHg 67%
    21:00 +21°C° 0 mm 3 mps 710 mmHg 73%
    22:00 +20°C° 0 mm 3 mps 711 mmHg 78%
    23:00 +19°C° 0 mm 2 mps 710 mmHg 80%

    Tomorrow, 24 June, Sunday

    Time Temperature Precipitation Wind Pressure Humidity
    00:00 +19°C° 0 mm 2 mps 710 mmHg 82%
    01:00 +19°C° 0 mm 2 mps 710 mmHg 84%
    02:00 +19°C° 0.1 mm 2 mps 710 mmHg 85%
    03:00 +18°C° 0.1 mm 2 mps 710 mmHg 86%
    04:00 +18°C° 0.1 mm 2 mps 710 mmHg 86%
    05:00 +19°C° 0.1 mm 2 mps 710 mmHg 82%
    06:00 +20°C° 0.1 mm 3 mps 710 mmHg 78%
    07:00 +20°C° 0.1 mm 3 mps 710 mmHg 73%
    08:00 +21°C° 0.1 mm 3 mps 710 mmHg 68%
    09:00 +22°C° 0.1 mm 3 mps 711 mmHg 63%
    10:00 +23°C° 0.1 mm 4 mps 711 mmHg 58%
    11:00 +23°C° 0.2 mm 4 mps 711 mmHg 56%
    12:00 +25°C° 0.2 mm 3 mps 711 mmHg 55%
    13:00 +25°C° 0.2 mm 3 mps 711 mmHg 53%
    14:00 +25°C° 0.2 mm 3 mps 711 mmHg 54%
    15:00 +25°C° 0.2 mm 3 mps 710 mmHg 55%
    16:00 +25°C° 0.2 mm 3 mps 710 mmHg 55%
    17:00 +24°C° 0.1 mm 3 mps 710 mmHg 59%
    18:00 +23°C° 0.1 mm 2 mps 710 mmHg 63%
    19:00 +21°C° 0.1 mm 2 mps 709 mmHg 67%
    20:00 +20°C° 0.1 mm 2 mps 710 mmHg 69%
    21:00 +21°C° 0.1 mm 1 mps 710 mmHg 72%
    22:00 +20°C° 0.1 mm 1 mps 710 mmHg 75%
    23:00 +20°C° 0.3 mm 1 mps 709 mmHg 76%

    Day after tomorrow, 25 June, Monday

    Time Temperature Precipitation Wind Pressure Humidity
    00:00 +19°C° 0.3 mm 1 mps 709 mmHg 77%
    01:00 +19°C° 0.3 mm 1 mps 709 mmHg 78%
    02:00 +19°C° 0.9 mm 1 mps 709 mmHg 78%
    03:00 +19°C° 0.9 mm 1 mps 708 mmHg 79%
    04:00 +19°C° 0.9 mm 1 mps 708 mmHg 79%
    05:00 +18°C° 1 mm 2 mps 708 mmHg 77%
    06:00 +18°C° 1 mm 2 mps 708 mmHg 76%
    07:00 +18°C° 1 mm 2 mps 708 mmHg 74%
    08:00 +19°C° 0.6 mm 2 mps 709 mmHg 70%
    09:00 +20°C° 0.6 mm 3 mps 709 mmHg 67%
    10:00 +20°C° 0.6 mm 3 mps 709 mmHg 63%
    11:00 +21°C° 0.5 mm 3 mps 709 mmHg 61%
    12:00 +21°C° 0.5 mm 3 mps 709 mmHg 59%
    13:00 +22°C° 0.5 mm 3 mps 709 mmHg 57%
    14:00 +22°C° 0.3 mm 3 mps 709 mmHg 57%
    15:00 +22°C° 0.3 mm 3 mps 708 mmHg 57%
    16:00 +22°C° 0.3 mm 3 mps 708 mmHg 56%
    17:00 +21°C° 0.1 mm 2 mps 708 mmHg 59%
    18:00 +20°C° 0.1 mm 2 mps 709 mmHg 62%
    19:00 +19°C° 0.1 mm 2 mps 709 mmHg 65%
    20:00 +19°C° 0 mm 2 mps 709 mmHg 67%
    21:00 +18°C° 0 mm 2 mps 709 mmHg 69%
    22:00 +17°C° 0 mm 2 mps 709 mmHg 72%
    23:00 +17°C° 0 mm 3 mps 709 mmHg 71%

    26 June, Tuesday

    Time Temperature Precipitation Wind Pressure Humidity
    00:00 +17°C° 0 mm 3 mps 708 mmHg 71%
    01:00 +17°C° 0 mm 3 mps 708 mmHg 71%
    02:00 +16°C° 0 mm 3 mps 708 mmHg 71%
    03:00 +16°C° 0 mm 3 mps 707 mmHg 71%
    04:00 +16°C° 0 mm 3 mps 707 mmHg 72%
    05:00 +17°C° 0 mm 3 mps 707 mmHg 67%
    06:00 +18°C° 0 mm 3 mps 708 mmHg 63%
    07:00 +20°C° 0 mm 3 mps 708 mmHg 59%
    08:00 +21°C° 0 mm 3 mps 708 mmHg 53%
    09:00 +22°C° 0 mm 3 mps 708 mmHg 47%
    10:00 +25°C° 0 mm 3 mps 708 mmHg 40%
    11:00 +25°C° 0 mm 4 mps 708 mmHg 39%
    12:00 +26°C° 0 mm 4 mps 708 mmHg 38%
    13:00 +26°C° 0 mm 4 mps 708 mmHg 37%
    14:00 +26°C° 0 mm 4 mps 708 mmHg 38%
    15:00 +25°C° 0 mm 4 mps 708 mmHg 40%
    16:00 +25°C° 0 mm 4 mps 708 mmHg 42%
    17:00 +23°C° 0 mm 4 mps 708 mmHg 47%
    18:00 +22°C° 0 mm 3 mps 708 mmHg 52%
    19:00 +21°C° 0 mm 3 mps 708 mmHg 57%
    20:00 +20°C° 0 mm 3 mps 708 mmHg 61%
    21:00 +19°C° 0 mm 2 mps 708 mmHg 65%
    22:00 +18°C° 0 mm 2 mps 708 mmHg 69%
    23:00 +18°C° 0 mm 2 mps 708 mmHg 70%

    27 June, Wednesday

    Time Temperature Precipitation Wind Pressure Humidity
    00:00 +17°C° 0 mm 2 mps 707 mmHg 72%
    01:00 +17°C° 0 mm 2 mps 707 mmHg 74%
    02:00 +17°C° 0 mm 2 mps 707 mmHg 75%
    03:00 +16°C° 0 mm 2 mps 707 mmHg 76%
    04:00 +16°C° 0 mm 2 mps 706 mmHg 78%
    05:00 +17°C° 0 mm 2 mps 706 mmHg 73%
    06:00 +18°C° 0 mm 3 mps 707 mmHg 69%
    07:00 +19°C° 0 mm 3 mps 707 mmHg 64%
    08:00 +21°C° 0 mm 3 mps 707 mmHg 59%
    09:00 +22°C° 0 mm 3 mps 707 mmHg 53%
    10:00 +24°C° 0 mm 3 mps 708 mmHg 47%
    11:00 +25°C° 0 mm 3 mps 708 mmHg 47%
    12:00 +25°C° 0 mm 4 mps 708 mmHg 46%
    13:00 +26°C° 0 mm 4 mps 708 mmHg 45%
    14:00 +25°C° 0.1 mm 4 mps 707 mmHg 48%
    15:00 +23°C° 0.1 mm 4 mps 707 mmHg 51%
    16:00 +22°C° 0.1 mm 4 mps 707 mmHg 54%
    17:00 +22°C° 0.1 mm 4 mps 707 mmHg 56%
    18:00 +21°C° 0.1 mm 4 mps 707 mmHg 57%
    19:00 +21°C° 0.1 mm 3 mps 708 mmHg 58%
    20:00 +20°C° 0 mm 3 mps 708 mmHg 62%
    21:00 +19°C° 0 mm 3 mps 708 mmHg 65%
    22:00 +19°C° 0 mm 3 mps 708 mmHg 68%
    23:00 +18°C° 0 mm 3 mps 708 mmHg 70%

    28 June, Thursday

    Time Temperature Precipitation Wind Pressure Humidity
    00:00 +18°C° 0 mm 3 mps 708 mmHg 73%
    01:00 +18°C° 0 mm 2 mps 708 mmHg 75%
    02:00 +18°C° 0 mm 2 mps 708 mmHg 76%
    03:00 +18°C° 0 mm 2 mps 708 mmHg 77%
    04:00 +17°C° 0 mm 2 mps 708 mmHg 77%
    05:00 +19°C° 0 mm 2 mps 708 mmHg 73%
    06:00 +20°C° 0 mm 2 mps 708 mmHg 68%
    07:00 +21°C° 0 mm 2 mps 708 mmHg 63%
    08:00 +23°C° 0 mm 2 mps 709 mmHg 57%
    09:00 +25°C° 0 mm 2 mps 709 mmHg 50%
    10:00 +27°C° 0 mm 2 mps 709 mmHg 44%
    11:00 +27°C° 0 mm 2 mps 709 mmHg 42%
    12:00 +28°C° 0 mm 2 mps 709 mmHg 40%
    13:00 +28°C° 0 mm 3 mps 709 mmHg 39%
    14:00 +28°C° 0 mm 3 mps 709 mmHg 41%
    15:00 +27°C° 0 mm 3 mps 709 mmHg 43%
    16:00 +27°C° 0 mm 3 mps 709 mmHg 44%
    17:00 +26°C° 0 mm 3 mps 709 mmHg 49%
    18:00 +25°C° 0 mm 2 mps 709 mmHg 53%
    19:00 +24°C° 0 mm 2 mps 709 mmHg 57%
    20:00 +23°C° 0 mm 2 mps 709 mmHg 60%
    21:00 +21°C° 0 mm 2 mps 709 mmHg 63%
    22:00 +21°C° 0 mm 1 mps 710 mmHg 66%
    23:00 +21°C° 0 mm 1 mps 710 mmHg 67%
    Show more